Regional Weather Roundup
Issued by NWS

Home | Current Version | Previous Version | Text Only | Print | Product List | Glossary Off
Versions: 1 2 3 4 5 6 7 8 9 10 11 12 13 14 15 16 17 18 19 20 21 22 23 24 25 26 27 28 29 30 31 32 33 34 35 36 37 38 39 40 41 42 43 44 45 46 47 48 49 50

000
ASUS45 KTFX 271804
RWRMT
MONTANA HOURLY WEATHER ROUNDUP
NATIONAL WEATHER SERVICE GREAT FALLS MT
1104 AM MST TUE JAN 27 2015

NOTE: "FAIR" INDICATES FEW OR NO CLOUDS BELOW 12000 FEET WITH NO
SIGNIFICANT WEATHER AND/OR OBSTRUCTIONS TO VISIBILITY.

* THESE STATIONS ARE NOT UNDER NWS QUALITY CONTROL. THEY DO NOT
   REPORT WEATHER SUCH AS PRECIPITATION OR FOG.

MTZ001>007-043-271900-
WEST OF THE DIVIDE
CITY           SKY/WX    TMP DP  RH WIND       PRES   REMARKS
KALISPELL      PTSUNNY   27  25  92 CALM      30.00R
MISSOULA       PTSUNNY   28  28 100 CALM      30.08S
BUTTE          PTSUNNY   36  28  73 CALM      30.05S
MULLAN PASS    CLOUDY    45  25  45 VRB5      30.02S
* ANACONDA     PTSUNNY   39  27  62 N/A        N/A
* ESSEX        N/A      N/A N/A N/A N/A        N/A
* LINCOLN      N/A       31  24  75 SE1        N/A
* LOOKOUT PASS N/A      N/A N/A N/A N/A        N/A
* POLSON       N/A       40  33  76 N/A        N/A
* RONAN APT    CLOUDY    28  27  96 N/A        N/A
* SEELEY LAKE  N/A       25  22  88 N/A        N/A
* THOMP F APT  CLOUDY    45  24  44 E4         N/A
$$

MTZ008-052>055-271900-
SOUTHWEST MONTANA
CITY           SKY/WX    TMP DP  RH WIND       PRES   REMARKS
BOZEMAN        PTCLDY    39  28  65 CALM      30.04S
DILLON         CLOUDY    46  28  50 S8        30.05F
* W YELLOWSTON PTSUNNY   21  19  92 N/A        N/A
* THREE FORKS  PTSUNNY   30 -40   3 N/A        N/A
* BOULDER HILL N/A      N/A N/A N/A N/A        N/A
* MONIDA PASS  N/A      N/A N/A N/A N/A        N/A
* RAYNOLDS PAS N/A      N/A N/A N/A N/A        N/A
* WHITEHALL    N/A       40  30  68 E3         N/A
* WISE RIVER   N/A       27  23  85 NW4        N/A
$$

MTZ009>010-012-014-046-048-049-054-271900-
EAST SLOPES AND CENTRAL MONTANA
CITY           SKY/WX    TMP DP  RH WIND       PRES   REMARKS
CUT BANK       CLOUDY    50  27  41 SW9       29.87R
GREAT FALLS    PTSUNNY   61  28  29 SW16G24   29.91R
HELENA         PTCLDY    37  30  76 CALM      30.03S
MALMSTROM AFB  PTSUNNY   61  30  31 SW15G21   29.92R
* DEARBORN     N/A      N/A N/A N/A N/A        N/A
* EAST GLACIER N/A      N/A N/A N/A N/A        N/A
* MONARCH      N/A      N/A N/A N/A N/A        N/A
* PENDROY      N/A      N/A N/A N/A N/A        N/A
* ROGERS PASS  N/A      N/A N/A N/A N/A        N/A
* SWEET GRASS  N/A      N/A N/A N/A N/A        N/A
$$

MTZ011-013-016-021-035-040-045-047-050-051-271900-
NORTH CENTRAL MONTANA
CITY           SKY/WX    TMP DP  RH WIND       PRES   REMARKS
HAVRE          CLOUDY    48  34  59 SW14      29.85S
LEWISTOWN      PTSUNNY   52  30  43 SE5       29.93S
* CHESTER      N/A       36  29  76 E2         N/A
* DENTON       N/A      N/A N/A N/A N/A        N/A
* GEYSER       N/A      N/A N/A N/A N/A        N/A
* JUDITH GAP   N/A      N/A N/A N/A N/A        N/A
* LOMA         N/A      N/A N/A N/A N/A        N/A
$$

MTZ017>020-022>027-061-062-271900-
NORTHEAST MONTANA
CITY           SKY/WX    TMP DP  RH WIND       PRES   REMARKS
GLASGOW        CLOUDY    41  34  76 SE5       29.86S
GLENDIVE       PTCLDY    43  36  76 SE7       29.89F
JORDAN         PTSUNNY   45  37  74 W3        29.87F
SIDNEY         PTSUNNY   43  36  76 S9        29.87F
WOLF POINT     PTSUNNY   43  36  76 SW5       29.86S
* BEAVER HILL  N/A      N/A N/A N/A N/A        N/A
* CIRCLE       N/A       43  36  76 W3         N/A
* LINDSAY DVD  N/A      N/A N/A N/A N/A        N/A
* NAVAJO       N/A      N/A N/A N/A N/A        N/A
* SACO         N/A      N/A N/A N/A N/A        N/A
$$

MTZ028>042-056>058-271900-
SOUTHCENTRAL AND SOUTHEAST MONTANA
CITY           SKY/WX    TMP DP  RH WIND       PRES   REMARKS
BAKER          PTCLDY    54  34  47 W5        29.91F
BILLINGS       CLOUDY    54  28  37 SW13G23   29.94R
LIVINGSTON     PTCLDY    59  23  25 W24G31    29.98F
MILES CITY     PTCLDY    43  32  65 SE8       29.91F
* LAUREL APT   CLOUDY    54  27  35 SW15       N/A
* ROUNDUP APT  CLOUDY    54  27  35 S14G21     N/A
* ALZADA       N/A      N/A N/A N/A N/A        N/A
* HYSHAM       N/A      N/A N/A N/A N/A        N/A
* LAME DEER    N/A      N/A N/A N/A N/A        N/A
* REED POINT   N/A      N/A N/A N/A N/A        N/A
* ROSCOE HILL  N/A      N/A N/A N/A N/A        N/A
$$

REGIONAL REPORTS...DAKOTAS
CITY           SKY/WX    TMP DP  RH WIND       PRES   REMARKS
WILLISTON      PTSUNNY   43  34  71 S6        29.85R
DICKINSON      PTSUNNY   55  36  49 W12       29.84F
CROSBY         SUNNY     43  39  86 SW7       29.80S
WATFORD CITY   SUNNY     43  36  76 SW12      29.83S
BISMARCK       PTCLDY    43  32  65 S6        29.89F
GRAND FORKS    FOG       28  27  96 S14       30.03F VSB 2    WCI  17
FARGO          FOG       30  28  92 SE16      30.06F WCI  19
BUFFALO SD     PTCLDY    57  30  36 W6        29.86F
$$

REGIONAL REPORTS...WYOMING/IDAHO/WASHINGTON
CITY           SKY/WX    TMP DP  RH WIND       PRES   REMARKS
GILLETTE       SUNNY     61  28  29 SW16G23   29.99R
SHERIDAN       SUNNY     57  34  42 CALM      29.95S
CODY           PTCLDY    48  28  46 CALM      30.02F
YELLOWSTONE LA PTCLDY    21  18  88 SE3       30.25S
SALMON         CLOUDY   N/A N/A N/A CALM      30.18S VSB 1/2
MULLAN PASS    CLOUDY    45  25  45 VRB5      30.02S
SAND POINT     FOG      N/A N/A N/A CALM      30.04R VSB M1/4
SPOKANE        FOG       30  30 100 NE3       30.00S VSB M1/4

$$



USA.gov is the U.S. government's official web portal to all federal, state and local government web resources and services.